User: anonymous   Login
Location: downtown San Diego
(32.7310°N, 117.1990°W)
Time: 01:53:33
(UTC-07:00)
Language:

Helios 1A - Orbit

View from above orbital plane
View from above orbital plane
View from above satellite
View from above satellite

Ground track
Ground track

The orbit data is extracted from the following two-line orbital elements,

1 23605U 95033A   19110.92907509 0.00000320  00000-0  32212-4 0    01
2 23605  98.1705 194.9021 0013825  39.7001 320.2998 14.91181980    08
Epoch (UTC): 20 April 2019 22:17:52
Eccentricity: 0.0013825
inclination: 98.1705°
perigee height: 584 km
apogee height: 604 km
right ascension of ascending node: 194.9021°
argument of perigee: 39.7001°
revolutions per day: 14.91181980
mean anomaly at epoch: 320.2998°
orbit number at epoch: 0

The dashed part of the orbit path shows where the satellite is in the earth's shadow,  

DLR